This is the latest recevied weather packets stored in our database for station/object OK2ZAW-23. If no packets are shown the sender has not sent any weather packets the latest 10 day(s).
| Time | Temp. | Humidity | Pressure | Rain* | Wind** | Luminosity | Snow |
|---|---|---|---|---|---|---|---|
| 1777484245 | 12.22° C | 22% | 1023.3 hPa | - | - | 335 W/m² | - |
| 1777483931 | 12.78° C | 21% | 1022.9 hPa | - | - | 335 W/m² | - |
| 1777483618 | 13.33° C | 20% | 1023 hPa | - | - | 335 W/m² | - |
| 1777482990 | 13.89° C | 20% | 1022.8 hPa | - | - | 335 W/m² | - |
| 1777482677 | 14.44° C | 20% | 1022.8 hPa | - | - | 335 W/m² | - |
| 1777482363 | 15° C | 20% | 1022.7 hPa | - | - | 335 W/m² | - |
| 1777481736 | 15.56° C | 19% | 1022.4 hPa | - | - | 335 W/m² | - |
| 1777481422 | 15.56° C | 19% | 1022.5 hPa | - | - | 335 W/m² | - |
| 1777481109 | 15.56° C | 19% | 1022.4 hPa | - | - | 335 W/m² | - |
| 1777479854 | 17.22° C | 18% | 1022.1 hPa | - | - | 336 W/m² | - |
| 1777479226 | 16.67° C | 18% | 1022.2 hPa | - | - | 335 W/m² | - |
| 1777478912 | 17.22° C | 19% | 1022.1 hPa | - | - | 336 W/m² | - |
| 1777477971 | 15.56° C | 19% | 1021.9 hPa | - | - | 335 W/m² | - |
| 1777477343 | 17.22° C | 19% | 1021.8 hPa | - | - | 335 W/m² | - |
| 1777477029 | 16.67° C | 19% | 1021.7 hPa | - | - | 335 W/m² | - |
| 1777476715 | 16.67° C | 19% | 1021.7 hPa | - | - | 336 W/m² | - |
| 1777475460 | 15° C | 20% | 1021.8 hPa | - | - | 335 W/m² | - |
| 1777475146 | 15° C | 20% | 1021.7 hPa | - | - | 335 W/m² | - |
| 1777474519 | 16.11° C | 22% | 1021.7 hPa | - | - | 336 W/m² | - |
| 1777473578 | 14.44° C | 23% | 1021.7 hPa | - | - | 335 W/m² | - |
| 1777472950 | 13.89° C | 23% | 1021.7 hPa | - | - | 335 W/m² | - |
| 1777472637 | 14.44° C | 24% | 1021.5 hPa | - | - | 335 W/m² | - |
| 1777471382 | 13.89° C | 26% | 1021.5 hPa | - | - | 335 W/m² | - |
| 1777470128 | 12.78° C | 29% | 1021.4 hPa | - | - | 335 W/m² | - |
| 1777469501 | 12.22° C | 30% | 1021.5 hPa | - | - | 335 W/m² | - |
* Rain since midnight (hover to see other rain measurements)
** Current wind speed in m/s (hover to see current wind gust speed)